H1 CPF 2 NER 2021 3 27 9 086 01 glonass121 H2 1000702 9121 36401 2021 3 27 0 0 0 2021 3 30 23 45 0 900 1 1 0 0 0 1 H9 10 0 59300 0.00000 0 -9580776.650 7885571.591 -22280139.049 10 0 59300 900.00000 0 -12220580.817 7407700.293 -21113205.676 10 0 59300 1800.00000 0 -14722931.703 7155387.486 -19535599.524 10 0 59300 2700.00000 0 -17021177.066 7109884.782 -17577656.575 10 0 59300 3600.00000 0 -19054911.693 7240962.116 -15277194.823 10 0 59300 4500.00000 0 -20772335.801 7508336.349 -12678797.648 10 0 59300 5400.00000 0 -22132270.542 7863543.577 -9832956.700 10 0 59300 6300.00000 0 -23105743.685 8252176.645 -6795089.938 10 0 59300 7200.00000 0 -23677076.312 8616392.685 -3624453.931 10 0 59300 8100.00000 0 -23844422.621 8897582.871 -382972.397 10 0 59300 9000.00000 0 -23619738.359 9039088.835 2865994.570 10 0 59300 9900.00000 0 -23028178.377 8988847.446 6058914.187 10 0 59300 10800.00000 0 -22106948.908 8701848.396 9133350.183 10 0 59300 11700.00000 0 -20903664.200 8142297.022 12029209.868 10 0 59300 12600.00000 0 -19474278.934 7285387.792 14689941.784 10 0 59300 13500.00000 0 -17880686.429 6118611.081 17063658.203 10 0 59300 14400.00000 0 -16188086.870 4642536.600 19104158.777 10 0 59300 15300.00000 0 -14462239.355 2871039.930 20771834.241 10 0 59300 16200.00000 0 -12766715.843 830963.024 22034432.395 10 0 59300 17100.00000 0 -11160274.001 -1438776.020 22867672.045 10 0 59300 18000.00000 0 -9694459.920 -3888584.928 23255694.241 10 0 59300 18900.00000 0 -8411540.711 -6460050.605 23191343.933 10 0 59300 19800.00000 0 -7342852.006 -9088164.836 22676278.847 10 0 59300 20700.00000 0 -6507627.086 -11703828.205 21720905.877 10 0 59300 21600.00000 0 -5912353.391 -14236527.320 20344148.627 10 0 59300 22500.00000 0 -5550679.765 -16617074.058 18573052.811 10 0 59300 23400.00000 0 -5403874.668 -18780293.675 16442239.020 10 0 59300 24300.00000 0 -5441812.779 -20667551.654 13993214.880 10 0 59300 25200.00000 0 -5624445.801 -22229016.440 11273560.817 10 0 59300 26100.00000 0 -5903693.702 -23425566.509 8336005.679 10 0 59300 27000.00000 0 -6225675.757 -24230265.223 5237409.977 10 0 59300 27900.00000 0 -6533187.368 -24629344.942 2037675.877 10 0 59300 28800.00000 0 -6768318.989 -24622661.767 -1201395.868 10 0 59300 29700.00000 0 -6875108.148 -24223604.034 -4417281.239 10 0 59300 30600.00000 0 -6802114.409 -23458459.505 -7547919.427 10 0 59300 31500.00000 0 -6504810.588 -22365268.301 -10532889.131 10 0 59300 32400.00000 0 -5947691.160 -20992209.281 -13314553.909 10 0 59300 33300.00000 0 -5106010.123 -19395586.081 -15839156.283 10 0 59300 34200.00000 0 -3967075.644 -17637495.288 -18057841.119 10 0 59300 35100.00000 0 -2531046.573 -15783271.991 -19927590.049 10 0 59300 36000.00000 0 -811195.823 -13898816.963 -21412050.061 10 0 59300 36900.00000 0 1166372.821 -12047914.851 -22482240.846 10 0 59300 37800.00000 0 3363545.909 -10289653.342 -23117127.410 10 0 59300 38700.00000 0 5731529.120 -8676049.609 -23304046.379 10 0 59300 39600.00000 0 8212632.178 -7249982.535 -23038976.574 10 0 59300 40500.00000 0 10742439.481 -6043517.191 -22326646.942 10 0 59300 41400.00000 0 13252279.454 -5076692.489 -21180477.464 10 0 59300 42300.00000 0 15671892.326 -4356824.375 -19622351.638 10 0 59300 43200.00000 0 17932186.778 -3878355.699 -17682222.188 10 0 59300 44100.00000 0 19967970.974 -3623261.222 -15397555.032 10 0 59300 45000.00000 0 21720543.159 -3561992.709 -12812619.973 10 0 59300 45900.00000 0 23140031.878 -3654925.791 -9977640.229 10 0 59300 46800.00000 0 24187385.400 -3854248.270 -6947816.231 10 0 59300 47700.00000 0 24835924.107 -4106209.908 -3782242.698 10 0 59300 48600.00000 0 25072387.892 -4353637.297 -542740.789 10 0 59300 49500.00000 0 24897432.194 -4538605.132 2707370.337 10 0 59300 50400.00000 0 24325550.151 -4605147.809 5904536.218 10 0 59300 51300.00000 0 23384423.578 -4501892.995 8986236.697 10 0 59300 52200.00000 0 22113730.534 -4184501.998 11892234.765 10 0 59300 53100.00000 0 20563461.227 -3617810.307 14565777.335 10 0 59300 54000.00000 0 18791815.490 -2777574.942 16954722.097 10 0 59300 54900.00000 0 16862773.112 -1651752.774 19012566.625 10 0 59300 55800.00000 0 14843442.197 -241254.891 20699358.493 10 0 59300 56700.00000 0 12801299.602 1439854.896 21982468.437 10 0 59300 57600.00000 0 10801441.292 3364725.012 22837212.071 10 0 59300 58500.00000 0 8903959.038 5494627.836 23247309.282 10 0 59300 59400.00000 0 7161553.331 7780378.235 23205174.302 10 0 59300 60300.00000 0 5617481.268 10164197.874 22712033.035 10 0 59300 61200.00000 0 4303923.115 12581945.786 21777867.799 10 0 59300 62100.00000 0 3240832.790 14965621.139 20421192.991 10 0 59300 63000.00000 0 2435316.706 17246033.475 18668668.199 10 0 59300 63900.00000 0 1881563.128 19355529.439 16554558.182 10 0 59300 64800.00000 0 1561321.195 21230663.568 14120051.586 10 0 59300 65700.00000 0 1444906.148 22814703.627 11412452.535 10 0 59300 66600.00000 0 1492685.913 24059868.305 8484261.221 10 0 59300 67500.00000 0 1656984.742 24929206.631 5392161.205 10 0 59300 68400.00000 0 1884322.948 25398043.371 2195932.502 10 0 59300 69300.00000 0 2117898.488 25454932.478 -1042689.408 10 0 59300 70200.00000 0 2300206.695 25102080.958 -4261187.855 10 0 59300 71100.00000 0 2375689.125 24355226.775 -7397451.422 10 0 59300 72000.00000 0 2293301.617 23242976.584 -10390951.265 10 0 59300 72900.00000 0 2008895.073 21805630.948 -13183888.454 10 0 59300 73800.00000 0 1487310.157 20093545.135 -15722291.059 10 0 59300 74700.00000 0 704098.671 18165092.339 -17957041.388 10 0 59300 75600.00000 0 -353200.765 16084312.088 -19844815.158 10 0 59300 76500.00000 0 -1684287.163 13918339.404 -21348915.580 10 0 59300 77400.00000 0 -3275856.066 11734719.450 -22439986.910 10 0 59300 78300.00000 0 -5101905.807 9598717.128 -23096593.879 10 0 59300 79200.00000 0 -7124581.778 7570731.876 -23305655.320 10 0 59300 80100.00000 0 -9295527.331 5703924.160 -23062722.493 10 0 59300 81000.00000 0 -11557688.925 4042152.136 -22372095.056 10 0 59300 81900.00000 0 -13847503.965 2618304.850 -21246770.204 10 0 59300 82800.00000 0 -16097383.101 1453102.702 -19708223.425 10 0 59300 83700.00000 0 -18238385.575 554416.931 -17786022.365 10 0 59300 84600.00000 0 -20202977.011 -82861.459 -15517278.660 10 0 59300 85500.00000 0 -21927754.138 -476395.862 -12945946.035 10 0 59301 0.00000 0 -23356021.254 -655437.604 -10121976.611 10 0 59301 900.00000 0 -24440107.987 -659358.567 -7100350.330 10 0 59301 1800.00000 0 -25143329.152 -535744.631 -3939997.253 10 0 59301 2700.00000 0 -25441499.661 -338131.260 -702633.120 10 0 59301 3600.00000 0 -25323939.870 -123478.885 2548466.648 10 0 59301 4500.00000 0 -24793925.288 50502.435 5749728.628 10 0 59301 5400.00000 0 -23868560.961 128062.443 8838551.386 10 0 59301 6300.00000 0 -22578085.255 58035.842 11754556.074 10 0 59301 7200.00000 0 -20964633.097 -203731.488 14440790.277 10 0 59301 8100.00000 0 -19080512.414 -692261.003 16844859.171 10 0 59301 9000.00000 0 -16986068.624 -1431716.864 18919960.043 10 0 59301 9900.00000 0 -14747229.697 -2434152.439 20625798.751 10 0 59301 10800.00000 0 -12432837.547 -3698781.349 21929370.044 10 0 59301 11700.00000 0 -10111879.877 -5211803.392 22805587.021 10 0 59301 12600.00000 0 -7850740.014 -6946791.433 23237748.716 10 0 59301 13500.00000 0 -5710580.272 -8865621.446 23217838.581 10 0 59301 14400.00000 0 -3744967.615 -10919904.834 22746650.307 10 0 59301 15300.00000 0 -1997839.158 -13052861.259 21833740.962 10 0 59301 16200.00000 0 -501889.776 -15201552.283 20497214.791 10 0 59301 17100.00000 0 722554.289 -17299381.634 18763344.062 10 0 59301 18000.00000 0 1668132.613 -19278757.480 16666036.260 10 0 59301 18900.00000 0 2340497.578 -21073806.206 14246159.375 10 0 59301 19800.00000 0 2757813.049 -22623025.686 11550739.319 10 0 59301 20700.00000 0 2949728.935 -23871769.113 8632045.509 10 0 59301 21600.00000 0 2955877.187 -24774457.978 5546582.286 10 0 59301 22500.00000 0 2823954.067 -25296434.153 2354005.110 10 0 59301 23400.00000 0 2607469.893 -25415376.198 -884018.294 10 0 59301 24300.00000 0 2363260.795 -25122222.691 -4104981.146 10 0 59301 25200.00000 0 2148866.264 -24421565.407 -7246724.001 10 0 59301 26100.00000 0 2019881.470 -23331496.983 -10248613.071 10 0 59301 27000.00000 0 2027394.165 -21882919.399 -13052689.546 10 0 59301 27900.00000 0 2215612.449 -20118341.443 -15604769.605 10 0 59301 28800.00000 0 2619781.917 -18090213.872 -17855475.495 10 0 59301 29700.00000 0 3264479.175 -15858869.512 -19761179.344 10 0 59301 30600.00000 0 4162353.607 -13490151.552 -21284842.683 10 0 59301 31500.00000 0 5313371.316 -11052826.106 -22396736.123 10 0 59301 32400.00000 0 6704595.057 -8615883.992 -23075025.534 10 0 59301 33300.00000 0 8310512.307 -6245841.624 -23306212.960 10 0 59301 34200.00000 0 10093901.292 -4004151.583 -23085422.668 10 0 59301 35100.00000 0 12007202.640 -1944829.538 -22416525.159 10 0 59301 36000.00000 0 13994343.202 -112396.090 -21312094.547 10 0 59301 36900.00000 0 15992939.175 1459780.066 -19793197.569 10 0 59301 37800.00000 0 17936789.140 2750667.260 -17889015.611 10 0 59301 38700.00000 0 19758554.379 3752233.045 -15636304.383 10 0 59301 39600.00000 0 21392514.700 4469553.757 -13078699.402 10 0 59301 40500.00000 0 22777283.546 4920365.137 -10265878.961 10 0 59301 41400.00000 0 23858366.726 5134071.605 -7252599.719 10 0 59301 42300.00000 0 24590454.547 5150255.321 -4097623.524 10 0 59301 43200.00000 0 24939347.932 5016748.319 -862557.007 10 0 59301 44100.00000 0 24883434.228 4787350.502 2389371.967 10 0 59301 45000.00000 0 24414647.689 4519292.285 5594574.812 10 0 59301 45900.00000 0 23538872.037 4270552.327 8690372.448 10 0 59301 46800.00000 0 22275766.893 4097147.383 11616247.525 10 0 59301 47700.00000 0 20658025.287 4050512.627 14315051.262 10 0 59301 48600.00000 0 18730094.415 4175086.646 16734138.862 10 0 59301 49500.00000 0 16546415.187 4506205.994 18826409.401 10 0 59301 50400.00000 0 14169256.943 5068400.170 20551228.674 10 0 59301 51300.00000 0 11666240.749 5874159.897 21875216.648 10 0 59301 52200.00000 0 9107657.404 6923230.609 22772884.699 10 0 59301 53100.00000 0 6563694.323 8202459.904 23227111.368 10 0 59301 54000.00000 0 4101688.153 9686203.830 23229449.260 10 0 59301 54900.00000 0 1783517.813 11337272.992 22780259.351 10 0 59301 55800.00000 0 -336754.347 13108376.725 21888672.500 10 0 59301 56700.00000 0 -2214897.090 14944003.041 20572381.394 10 0 59301 57600.00000 0 -3818099.605 16782654.290 18857269.157 10 0 59301 58500.00000 0 -5126072.895 18559344.256 16776883.796 10 0 59301 59400.00000 0 -6131621.315 20208252.262 14371770.133 10 0 59301 60300.00000 0 -6840664.371 21665424.052 11688673.103 10 0 59301 61200.00000 0 -7271711.472 22871407.848 8779628.432 10 0 59301 62100.00000 0 -7454814.716 23773717.233 5700958.195 10 0 59301 63000.00000 0 -7430045.866 24329020.024 2512190.207 10 0 59301 63900.00000 0 -7245562.754 24504963.800 -725078.653 10 0 59301 64800.00000 0 -6955346.784 24281563.766 -3948354.498 10 0 59301 65700.00000 0 -6616706.198 23652096.560 -7095432.745 10 0 59301 66600.00000 0 -6287649.030 22623463.489 -10105577.341 10 0 59301 67500.00000 0 -6024234.775 21216008.376 -12920672.027 10 0 59301 68400.00000 0 -5878014.439 19462797.228 -15486323.236 10 0 59301 69300.00000 0 -5893665.104 17408388.244 -17752894.977 10 0 59301 70200.00000 0 -6106917.313 15107141.476 -19676457.318 10 0 59301 71100.00000 0 -6542861.917 12621135.858 -21219631.343 10 0 59301 72000.00000 0 -7214707.845 10017777.459 -22352314.979 10 0 59301 72900.00000 0 -8123044.267 7367195.391 -23052275.926 10 0 59301 73800.00000 0 -9255640.313 4739530.820 -23305599.835 10 0 59301 74700.00000 0 -10587793.738 2202229.502 -23106984.054 10 0 59301 75600.00000 0 -12083217.445 -182551.257 -22459869.625 10 0 59301 76500.00000 0 -13695430.509 -2360314.241 -21376406.851 10 0 59301 77400.00000 0 -15369598.958 -4286273.720 -19877252.542 10 0 59301 78300.00000 0 -17044752.267 -5927000.307 -17991200.189 10 0 59301 79200.00000 0 -18656284.851 -7261589.201 -15754647.521 10 0 59301 80100.00000 0 -20138638.690 -8282301.063 -13210909.427 10 0 59301 81000.00000 0 -21428054.365 -8994646.844 -10409387.733 10 0 59301 81900.00000 0 -22465273.616 -9416911.419 -7404612.787 10 0 59301 82800.00000 0 -23198077.420 -9579135.018 -4255175.263 10 0 59301 83700.00000 0 -23583549.732 -9521595.224 -1022569.601 10 0 59301 84600.00000 0 -23589968.192 -9292854.403 2230026.977 10 0 59301 85500.00000 0 -23198238.803 -8947456.849 5439013.775 10 0 59302 0.00000 0 -22402811.434 -8543375.630 8541636.970 10 0 59302 900.00000 0 -21212035.136 -8139320.724 11477243.654 10 0 59302 1800.00000 0 -19647938.532 -7792025.043 14188491.265 10 0 59302 2700.00000 0 -17745442.780 -7553628.179 16622487.361 10 0 59302 3600.00000 0 -15551043.143 -7469269.821 18731834.820 10 0 59302 4500.00000 0 -13121015.244 -7574998.029 20475560.957 10 0 59302 5400.00000 0 -10519224.056 -7896081.460 21819912.109 10 0 59302 6300.00000 0 -7814629.560 -8445797.151 22738998.615 10 0 59302 7200.00000 0 -5078595.547 -9224744.249 23215278.773 10 0 59302 8100.00000 0 -2382115.347 -10220711.056 23239874.197 10 0 59302 9000.00000 0 206929.320 -11409098.992 22812712.646 10 0 59302 9900.00000 0 2626362.522 -12753883.327 21942497.985 10 0 59302 10800.00000 0 4822054.900 -14209068.189 20646510.296 10 0 59302 11700.00000 0 6749916.095 -15720572.964 18950242.297 10 0 59302 12600.00000 0 8377459.042 -17228469.656 16886881.034 10 0 59302 13500.00000 0 9684874.745 -18669476.893 14496646.436 10 0 59302 14400.00000 0 10665576.699 -19979606.206 11826000.519 10 0 59302 15300.00000 0 11326195.997 -21096850.581 8926743.110 10 0 59302 16200.00000 0 11686030.738 -21963804.062 5855011.610 10 0 59302 17100.00000 0 11775975.592 -22530104.582 2670203.610 10 0 59302 18000.00000 0 11636978.193 -22754599.751 -566157.554 10 0 59302 18900.00000 0 11318088.133 -22607146.836 -3791593.651 10 0 59302 19800.00000 0 10874180.531 -22069973.244 -6943857.702 10 0 59302 20700.00000 0 10363449.114 -21138541.673 -9962114.084 10 0 59302 21600.00000 0 9844772.859 -19821884.338 -12788091.688 10 0 59302 22500.00000 0 9375065.257 -18142391.882 -15367189.677 10 0 59302 23400.00000 0 9006715.812 -16135064.707 -17649516.151 10 0 59302 24300.00000 0 8785229.761 -13846256.013 -19590841.245 10 0 59302 25200.00000 0 8747164.146 -11331956.210 -21153447.483 10 0 59302 26100.00000 0 8918446.529 -8655687.186 -22306861.688 10 0 59302 27000.00000 0 9313147.460 -5886090.714 -23028454.629 10 0 59302 27900.00000 0 9932759.625 -3094308.007 -23303896.441 10 0 59302 28800.00000 0 10766016.184 -351256.542 -23127458.037 10 0 59302 29700.00000 0 11789258.882 2275084.937 -22502151.108 10 0 59302 30600.00000 0 12967343.902 4722271.890 -21439701.864 10 0 59302 31500.00000 0 14255050.899 6935762.366 -19960356.527 10 0 59302 32400.00000 0 15598939.295 8870959.420 -18092519.644 10 0 59302 33300.00000 0 16939576.443 10494841.231 -15872229.497 10 0 59302 34200.00000 0 18214045.616 11787109.091 -13342478.463 10 0 59302 35100.00000 0 19358628.829 12740803.321 -10552389.580 10 0 59302 36000.00000 0 20311550.867 13362359.414 -7556264.135 10 0 59302 36900.00000 0 21015667.061 13671100.568 -4412518.517 10 0 59302 37800.00000 0 21420978.781 13698187.278 -1182531.573 10 0 59302 38700.00000 0 21486867.243 13485068.455 2070573.693 10 0 59302 39600.00000 0 21183947.887 13081500.622 5283188.082 10 0 59302 40500.00000 0 20495463.890 12543221.053 8392486.667 10 0 59302 41400.00000 0 19418157.370 11929376.143 11337684.064 10 0 59302 42300.00000 0 17962579.844 11299817.104 14061247.018 10 0 59302 43200.00000 0 16152828.197 10712380.889 16510038.131 10 0 59302 44100.00000 0 14025717.557 10220274.455 18636366.347 10 0 59302 45000.00000 0 11629427.147 9869675.481 20398922.384 10 0 59302 45900.00000 0 9021677.766 9697652.539 21763580.435 10 0 59302 46800.00000 0 6267519.416 9730493.099 22704050.883 10 0 59302 47700.00000 0 3436823.741 9982509.438 23202372.457 10 0 59302 48600.00000 0 601587.673 10455371.406 23249236.017 10 0 59302 49500.00000 0 -2166838.359 11137992.046 22844135.899 10 0 59302 50400.00000 0 -4800482.017 12006968.403 21995348.281 10 0 59302 51300.00000 0 -7237327.739 13027556.389 20719739.494 10 0 59302 52200.00000 0 -9423637.142 14155136.373 19042410.219 10 0 59302 53100.00000 0 -11315917.282 15337106.063 16996184.496 10 0 59302 54000.00000 0 -12882458.280 16515119.919 14620954.966 10 0 59302 54900.00000 0 -14104380.033 17627580.678 11962898.045 10 0 59302 55800.00000 0 -14976148.091 18612278.623 9073574.810 10 0 59302 56700.00000 0 -15505540.816 19409068.848 6008935.011 10 0 59302 57600.00000 0 -15713072.212 19962475.677 2828242.998 10 0 59302 58500.00000 0 -15630896.853 20224116.703 -407054.443 10 0 59302 59400.00000 0 -15301244.350 20154846.830 -3634497.688 10 0 59302 60300.00000 0 -14774449.444 19726533.997 -6791800.220 10 0 59302 61200.00000 0 -14106660.091 18923393.451 -9818029.572 10 0 59302 62100.00000 0 -13357318.817 17742825.533 -12654762.314 10 0 59302 63000.00000 0 -12586521.503 16195721.826 -15247192.643 10 0 59302 63900.00000 0 -11852362.674 14306226.039 -17545174.761 10 0 59302 64800.00000 0 -11208376.957 12110957.784 -19504180.586 10 0 59302 65700.00000 0 -10701182.537 9657729.129 -21086155.485 10 0 59302 66600.00000 0 -10368424.582 7003804.378 -22260256.291 10 0 59302 67500.00000 0 -10237104.624 4213772.008 -23003457.655 10 0 59302 68400.00000 0 -10322366.614 1357113.721 -23301014.715 10 0 59302 69300.00000 0 -10626792.047 -1494431.583 -23146772.153 10 0 59302 70200.00000 0 -11140235.982 -4269602.189 -22543312.171 10 0 59302 71100.00000 0 -11840213.700 -6900334.737 -21501936.378 10 0 59302 72000.00000 0 -12692824.893 -9324360.058 -20042479.507 10 0 59302 72900.00000 0 -13654179.689 -11487565.863 -18192955.840 10 0 59302 73800.00000 0 -14672269.279 -13346027.071 -15989042.513 10 0 59302 74700.00000 0 -15689204.373 -14867617.496 -13473407.327 10 0 59302 75600.00000 0 -16643728.261 -16033133.603 -10694892.176 10 0 59302 76500.00000 0 -17473898.338 -16836881.158 -7707566.694 10 0 59302 77400.00000 0 -18119821.679 -17286698.271 -4569670.215 10 0 59302 78300.00000 0 -18526326.847 -17403412.596 -1342463.102 10 0 59302 79200.00000 0 -18645455.990 -17219755.073 1910988.830 10 0 59302 80100.00000 0 -18438668.453 -16778776.535 5127070.904 10 0 59302 81000.00000 0 -17878659.309 -16131835.564 8242890.044 10 0 59302 81900.00000 0 -16950712.908 -15336245.034 11197531.467 10 0 59302 82800.00000 0 -15653531.965 -14452679.842 13933274.034 10 0 59302 83700.00000 0 -13999505.801 -13542458.781 16396738.004 10 0 59302 84600.00000 0 -12014405.996 -12664818.659 18539940.732 10 0 59302 85500.00000 0 -9736522.923 -11874298.640 20321238.310 10 0 59303 0.00000 0 -7215280.751 -11218347.160 21706134.309 10 0 59303 900.00000 0 -4509390.536 -10735253.728 22667940.298 10 0 59303 1800.00000 0 -1684621.438 -10452491.661 23188276.073 10 0 59303 2700.00000 0 1188715.876 -10385542.292 23257401.963 10 0 59303 3600.00000 0 4038466.881 -10537246.060 22874378.733 10 0 59303 4500.00000 0 6793398.988 -10897706.635 22047054.414 10 0 59303 5400.00000 0 9385920.754 -11444748.527 20791880.821 10 0 59303 6300.00000 0 11754642.735 -12144906.246 19133565.591 10 0 59303 7200.00000 0 13846675.510 -12954900.887 17104568.495 10 0 59303 8100.00000 0 15619572.247 -13823540.107 14744453.354 10 0 59303 9000.00000 0 17042838.352 -14693960.466 12099109.158 10 0 59303 9900.00000 0 18098948.867 -15506117.476 9219856.101 10 0 59303 10800.00000 0 18783834.772 -16199419.115 6162453.841 10 0 59303 11700.00000 0 19106821.083 -16715393.107 2986030.773 10 0 59303 12600.00000 0 19090021.977 -17000277.556 -248045.793 10 0 59303 13500.00000 0 18767220.059 -17007427.767 -3477337.894 10 0 59303 14400.00000 0 18182277.618 -16699439.908 -6639522.546 10 0 59303 15300.00000 0 17387146.640 -16049903.972 -9673573.439 10 0 59303 16200.00000 0 16439560.206 -15044713.401 -12520917.692 10 0 59303 17100.00000 0 15400500.809 -13682876.800 -15126547.191 10 0 59303 18000.00000 0 14331549.934 -11976797.294 -17440064.688 10 0 59303 18900.00000 0 13292228.060 -9952006.341 -19416646.072 10 0 59303 19800.00000 0 12337434.727 -7646360.825 -21017901.471 10 0 59303 20700.00000 0 11515094.511 -5108733.993 -22212619.335 10 0 59303 21600.00000 0 10864106.615 -2397251.251 -22977379.486 10 0 59303 22500.00000 0 10412683.888 422859.529 -23297022.998 10 0 59303 23400.00000 0 10177151.556 3281717.339 -23164968.914 10 0 59303 24300.00000 0 10161257.545 6107438.543 -22583370.163 10 0 59303 25200.00000 0 10356025.516 8828880.957 -21563103.622 10 0 59303 26100.00000 0 10740159.451 11378369.066 -20123592.025 10 0 59303 27000.00000 0 11280985.629 13694287.706 -18292458.519 10 0 59303 27900.00000 0 11935895.059 15723435.879 -16105017.828 10 0 59303 28800.00000 0 12654227.799 17423041.221 -13603611.499 10 0 59303 29700.00000 0 13379521.100 18762349.130 -10836798.172 10 0 59303 30600.00000 0 14052026.844 19723717.806 -7858413.301 10 0 59303 31500.00000 0 14611391.186 20303171.016 -4726516.232 10 0 59303 32400.00000 0 14999381.265 20510383.596 -1502245.589 10 0 59303 33300.00000 0 15162540.947 20368099.143 1751393.498 10 0 59303 34200.00000 0 15054659.890 19911004.238 4970784.460 10 0 59303 35100.00000 0 14638947.948 19184107.515 8092969.663 10 0 59303 36000.00000 0 13889819.540 18240693.823 11056908.363 10 0 59303 36900.00000 0 12794209.723 17139942.474 13804694.737 10 0 59303 37800.00000 0 11352364.360 15944313.274 16282709.602 10 0 59303 38700.00000 0 9578069.931 14716813.955 18442681.268 10 0 59303 39600.00000 0 7498313.273 13518267.306 20242633.373 10 0 59303 40500.00000 0 5152386.339 12404695.620 21647700.674 10 0 59303 41400.00000 0 2590474.925 11424934.093 22630797.202 10 0 59303 42300.00000 0 -128207.603 10618574.074 23173124.766 10 0 59303 43200.00000 0 -2937661.764 10014321.903 23264513.644 10 0 59303 44100.00000 0 -5767623.526 9628840.592 22903591.016 10 0 59303 45000.00000 0 -8546259.790 9466120.425 22097776.240 10 0 59303 45900.00000 0 -11202925.428 9517401.816 20863105.596 10 0 59303 46800.00000 0 -13670867.823 9761650.386 19223892.148 10 0 59303 47700.00000 0 -15889767.915 10166561.157 17212229.413 10 0 59303 48600.00000 0 -17808014.405 10690047.007 14867350.007 10 0 59303 49500.00000 0 -19384619.444 11282146.843 12234852.804 10 0 59303 50400.00000 0 -20590699.269 11887272.093 9365814.188 10 0 59303 51300.00000 0 -21410461.488 12446696.722 6315800.699 10 0 59303 52200.00000 0 -21841661.030 12901186.506 3143801.683 10 0 59303 53100.00000 0 -21895508.457 13193658.098 -88898.086 10 0 59303 54000.00000 0 -21596036.581 13271757.578 -3319885.300 10 0 59303 54900.00000 0 -20978953.178 13090251.805 -6486803.419 10 0 59303 55800.00000 0 -20090028.152 12613133.567 -9528535.075 10 0 59303 56700.00000 0 -18983082.344 11815353.364 -12386360.556 10 0 59303 57600.00000 0 -17717661.196 10684105.944 -15005071.849 10 0 59303 58500.00000 0 -16356488.860 9219617.394 -17334022.398 10 0 59303 59400.00000 0 -14962807.417 7435398.879 -19328093.888 10 0 59303 60300.00000 0 -13597710.437 5357954.469 -20948562.681 10 0 59303 61200.00000 0 -12317580.618 3025952.556 -22163849.955 10 0 59303 62100.00000 0 -11171737.267 488892.022 -22950141.444 10 0 59303 63000.00000 0 -10200391.221 -2194685.092 -23291864.550 10 0 59303 63900.00000 0 -9432992.797 -4959363.819 -23182012.708 10 0 59303 64800.00000 0 -8887042.679 -7735322.812 -22622309.289 10 0 59303 65700.00000 0 -8567417.077 -10450997.736 -21623205.800 10 0 59303 66600.00000 0 -8466237.575 -13035832.900 -20203712.028 10 0 59303 67500.00000 0 -8563293.584 -15423007.923 -18391058.713 10 0 59303 68400.00000 0 -8827002.111 -17552026.051 -16220196.593 10 0 59303 69300.00000 0 -9215866.680 -19371055.252 -13733139.124 10 0 59303 70200.00000 0 -9680375.476 -20838922.646 -10978159.639 10 0 59303 71100.00000 0 -10165259.320 -21926676.562 -8008857.167 10 0 59303 72000.00000 0 -10612013.781 -22618648.230 -4883108.695 10 0 59303 72900.00000 0 -10961577.347 -22912966.255 -1661928.615 10 0 59303 73800.00000 0 -11157049.951 -22821500.470 1591741.200 10 0 59303 74700.00000 0 -11146333.699 -22369236.572 4814284.955 10 0 59303 75600.00000 0 -10884580.418 -21593107.978 7942683.165 10 0 59303 76500.00000 0 -10336338.886 -20540335.273 10915771.873 10 0 59303 77400.00000 0 -9477307.690 -19266345.353 13675463.281 10 0 59303 78300.00000 0 -8295617.051 -17832360.819 16167901.382 10 0 59303 79200.00000 0 -6792583.800 -16302764.359 18344527.868 10 0 59303 80100.00000 0 -4982907.007 -14742352.312 20163036.079 10 0 59303 81000.00000 0 -2894296.248 -13213595.713 21588193.761 10 0 59303 81900.00000 0 -566549.121 -11774025.942 22592518.889 10 0 59303 82800.00000 0 1949881.709 -10473855.774 23156796.311 10 0 59303 83700.00000 0 4595770.171 -9353935.491 23270426.893 10 0 59303 84600.00000 0 7305366.901 -8444128.428 22931604.496 10 0 59303 85500.00000 0 10008922.511 -7762171.821 22147319.748 99